Weather in Verkh-Irmen

Russia / Novosibirsk Oblast     54°34′48″N   82°13′57″E
temp.,
°C
wind,
m/s
gust,
m/s
humid.,
%
clouds,
%
prec.,
mm/h
press.,
hPa
HPBL,
m
25 february, thu
thu2501:00−18wsw7177882 2.1 1014531
04:00−21sw510860 0.0 1016186
07:00−23sw510911 0.0 1017180
10:00−23ssw510840 0.0 1019252
13:00−19sw7128327 0.0 10191207
16:00−19sw81483100 0.1 10201743
19:00−19sw61385100 0.2 10211095
22:00−20sw51193100 0.0 1022886
26 february, fri
fri2601:00−21sw61191100 0.1 1022743
04:00−22sw61192100 0.1 1024679
07:00−23sw71192100 0.1 1026840
10:00−24wsw81390100 0.1 1029753
13:00−23wsw81287100 0.1 1032929
16:00−23wsw71188100 0.0 1034781
19:00−26wsw51092100 0.1 1035267
22:00−28sw499599 0.0 1037191
27 february, sat
sat2701:00−29sw489698 0.0 1037183
04:00−28sw3796100 0.0 1038167
07:00−27sw3895100 0.1 1038303
10:00−26sw4993100 0.0 1038419
13:00−23sw4791100 0.1 1038517
16:00−21sw4689100 0.0 1038592
19:00−25sw349498 0.0 103840
22:00−28ssw349415 0.0 103938
28 february, sun
sun2801:00−28ssw33947 0.0 103928
04:00−28s339662 0.0 103831
07:00−27s349575 0.0 103745
10:00−25sse479170 0.0 1035142
13:00−18s598884 0.0 1032369
16:00−12s61084100 0.0 1030634
19:00−11s61289100 0.0 1026546
22:00−9s71393100 0.7 1023733
1 march, mon
mon101:00−9s71493100 2.2 1019726
04:00−7ssw81593100 1.6 1016711
07:00−6ssw81593100 2.1 1014700
10:00−3ssw101791100 1.0 1012830
13:00−1sw101691100 1.5 1012872
16:000sw91491100 0.2 1011982
19:000sw81589100 0.8 1012766
22:00−1sw71395100 0.3 1013614